Location: Gwatt
(46.7204°N, 7.6223°E)
Time: 01:12:51
(UTC+00:00)

Envisat - Pass Details

Date: 27 November 2020
Orbit: 764 x 766 km, 98.1° (Epoch: 19 January)

Event Time Altitude Azimuth Distance (km) Brightness Sun altitude
Rises 04:26:59 0° 25° (NNE) 3,245 6.5 -23.7°
Reaches altitude 10° 04:29:44 10° 39° (NE) 2,313 5.9 -23.2°
Maximum altitude 04:33:50 24° 92° (E) 1,551 5.4 -22.6°
Drops below altitude 10° 04:37:53 10° 146° (SE) 2,298 6.0 -21.9°
Sets 04:40:36 0° 160° (SSE) 3,218 6.6 -21.4°
